Flag for Norway Weather past 2 weeks in Mysen, Norway

Now
31 °F

Clear.


Feels Like: 31 °F
Forecast: 36 / 50 °F
Wind: No wind

Location: Rygge

Current Time: Apr 28, 2015 at 3:50:58 AM

Latest Report: Apr 28, 2015 at 3:00 AM


Visibility: 17 mi

Pressure: 29.70 "Hg

Humidity: 97%

Dew point: 30 °F

Location of MysenLocation

Historic Weather in Mysen — Graph

°F

Mysen temperature yesterday

Maximum temperature yesterday: 48 °F (at 1:00 PM)
Minimum temperature yesterday: 28 °F (at 6:00 AM)
Average temperature yesterday: 39 °F

Past Weeks' High & Low Weather Summary

 TemperatureHumidityPressure
High67 °F (Apr 20, 1:00 PM)100% (Apr 27, 3:00 AM)30.37 "Hg (Apr 27, 3:00 AM)
Low28 °F (Apr 27, 6:00 AM)19% (Apr 23, 2:00 PM)29.41 "Hg (Apr 25, 7:00 PM)
Average47 °F60%29.90 "Hg
* Reported Apr 13 2:00 AM — Apr 28 2:00 AM, Mysen, Weather by CustomWeather, © 2015

Note: Actual official high and low records may vary slightly from our data, if they occured in-between our weather recording intervals... More about our weather records

Advertising

Mysen weather history for previous 24 hours

 ConditionsComfort  
Time TempWeatherWind HumidityBarometerVisibility
2:00 AM
Tue, Apr 28
31 °FClear.1 mph96%29.68 "Hg16 mi
1:00 AM33 °FClear.1 mph93%29.68 "Hg19 mi
12:00 AM38 °FPassing clouds.2 mph88%29.66 "Hg19 mi
10:00 PM
Mon, Apr 27
40 °FOvercast.2 mph77%29.65 "Hg25 mi
9:00 PM41 °FClear.5 mph75%29.65 "Hg28 mi
8:00 PM43 °FPartly sunny.6 mph71%29.64 "Hg31 mi
7:00 PM44 °FPartly sunny.8 mph68%29.64 "Hg25 mi
6:00 PM44 °FOvercast.7 mph69%29.64 "Hg25 mi
5:00 PM47 °FScattered clouds.9 mph62%29.64 "Hg19 mi
4:00 PM47 °FSunny.9 mph56%29.64 "Hg22 mi
3:00 PM47 °FSunny.8 mph58%29.64 "Hg22 mi
2:00 PM48 °FSunny.8 mph60%29.64 "Hg25 mi
1:00 PM48 °FScattered clouds.6 mph58%29.64 "Hg18 mi
12:00 PM48 °FSunny.2 mph58%29.64 "Hg25 mi
11:00 AM42 °FScattered clouds.2 mph91%29.65 "Hg22 mi
10:00 AM38 °FOvercast.1 mph98%29.65 "Hg4 mi
9:00 AM35 °FLow clouds.1 mph99%29.65 "Hg0 mi
8:00 AM34 °FLow clouds.2 mph99%29.64 "Hg0 mi
7:00 AM31 °FLow clouds.3 mph99%29.63 "Hg0 mi
6:00 AM28 °FPassing clouds.2 mph99%29.64 "Hg0 mi
5:00 AM29 °FPassing clouds.2 mph99%29.64 "Hg0 mi
4:00 AM30 °FClear.1 mph100%29.64 "Hg11 mi
3:00 AM31 °FClear.1 mph100%29.64 "Hg0 mi
Weather by CustomWeather, © 2015

See weather overviewHow to use our weather pages